Location: Olomouc
(49.5830°N, 17.2500°E)
Time: 20:41:00
(UTC+02:00)

ISS - Pass Details

Date: 11 May 2021
Orbit: 417 x 422 km, 51.6° (Epoch: 14 June)

Event Time Altitude Azimuth Distance (km) Brightness Sun altitude
Exits shadow 02:02:57 49° 299° (WNW) 550 -3.2 -20.5°
Maximum altitude 02:03:36 63° 352° (N) 475 -3.4 -20.4°
Drops below altitude 10° 02:06:58 10° 75° (ENE) 1,510 -0.5 -20.3°
Sets 02:09:05 0° 78° (ENE) 2,376 0.5 -20.1°
